Weather History for Hill City, KS

Change the Weather History Date:

Sunday, October 7, 2012

  Actual Average Record
Temperature  
Mean Temperature 40 °F 58 °F  
Max Temperature 54 °F 72 °F 90 °F (1980)
Min Temperature 25 °F 44 °F 18 °F (2000)
Degree Days  
Heating Degree Days 26    
Moisture  
Dew Point 33 °F    
Average Humidity 81    
Maximum Humidity 96    
Minimum Humidity 54    
Precipitation  
Precipitation T in 0.05 in 0.55 in (2011)
Month to date precipitation 0.36 0.36  
Year to date precipitation 9.07 20.12  
Sea Level Pressure  
Sea Level Pressure 30.27 in    
Wind  
Wind Speed 6 mph (WSW)    
Max Wind Speed 13 mph    
Max Gust Speed 20 mph    
Visibility 10 miles    
Events      
T = Trace of Precipitation, MM = Missing Value Source: NWS Daily Summary

Daily Weather History Graph

Daily Weather History Graph

Search for Another Location

Airport:

Trip Planner

Search our weather history database for the weather conditions in past years. The results will help you decide how hot, cold, wet, or windy it might be!

Date:

Astronomy

Oct. 07, 2012 Rise Set
Actual Time 7:41 AM CDT 7:11 PM CDT
Civil Twilight 7:14 AM CDT 7:38 PM CDT
Nautical Twilight 6:43 AM CDT 8:09 PM CDT
Astronomical Twilight 6:12 AM CDT 8:40 PM CDT
Moon No Moon Rise 2:18 PM CDT (10/7)
Length of Visible Light 12h 23m
Length of Day
11h 29m
Waning Gibbous, 56% of the Moon is Illuminated
Oct 7
Waning Gibbous
Oct 8
Last Quarter
Oct 15
New
Oct 21
First Quarter
Oct 29
Full

Hourly Weather History & Observations

Time (CDT) Temp. Windchill Dew Point Humidity Pressure Visibility Wind Dir Wind Speed Gust Speed Precip Events Conditions
12:53 AM 30.0 °F 24.1 °F 28.9 °F 96% 30.42 in 10.0 mi West 5.8 mph - N/A   Clear
2:53 AM 28.0 °F 24.2 °F 27.0 °F 96% 30.41 in 10.0 mi West 3.5 mph - N/A   Clear
3:53 AM 27.0 °F 21.6 °F 26.1 °F 96% 30.39 in 10.0 mi WSW 4.6 mph - N/A   Clear
4:53 AM 27.0 °F 23.0 °F 26.1 °F 96% 30.38 in 10.0 mi West 3.5 mph - N/A   Clear
5:53 AM 25.0 °F 20.7 °F 23.0 °F 92% 30.38 in 10.0 mi West 3.5 mph - N/A   Clear
6:53 AM 26.1 °F 21.9 °F 24.1 °F 92% 30.36 in 10.0 mi West 3.5 mph - N/A   Clear
7:53 AM 25.0 °F 19.3 °F 24.1 °F 96% 30.37 in 10.0 mi West 4.6 mph - N/A   Clear
8:53 AM 28.9 °F 25.2 °F 27.0 °F 92% 30.38 in 10.0 mi West 3.5 mph - N/A   Clear
9:53 AM 33.1 °F - 30.9 °F 92% 30.37 in 10.0 mi Calm Calm - N/A   Scattered Clouds
10:53 AM 37.0 °F - 35.1 °F 93% 30.35 in 10.0 mi Calm Calm - N/A   Overcast
11:43 AM 42.8 °F 37.0 °F 39.2 °F 87% 30.28 in 10.0 mi SW 10.4 mph - N/A   Overcast
11:53 AM 43.0 °F 37.7 °F 37.9 °F 82% 30.32 in 10.0 mi SSW 9.2 mph - N/A   Overcast
12:09 PM 42.8 °F 37.5 °F 37.4 °F 81% 30.27 in 10.0 mi SW 9.2 mph - N/A   Overcast
12:42 PM 44.6 °F 40.2 °F 37.4 °F 76% 30.25 in 10.0 mi SW 8.1 mph - N/A   Overcast
12:53 PM 44.1 °F 39.0 °F 37.0 °F 76% 30.30 in 10.0 mi WSW 9.2 mph - N/A   Overcast
1:35 PM 46.4 °F 41.1 °F 37.4 °F 71% 30.23 in 10.0 mi SW 11.5 mph 19.6 mph N/A   Overcast
1:53 PM 46.9 °F - 37.9 °F 71% 30.26 in 10.0 mi WSW 10.4 mph - N/A   Overcast
2:53 PM 48.9 °F - 37.9 °F 66% 30.21 in 10.0 mi SW 5.8 mph - N/A   Mostly Cloudy
3:53 PM 48.9 °F - 39.0 °F 69% 30.19 in 10.0 mi WSW 4.6 mph - 0.00 in   Mostly Cloudy
4:53 PM 53.1 °F - 37.0 °F 55% 30.15 in 10.0 mi SW 12.7 mph - 0.00 in   Partly Cloudy
5:53 PM 52.0 °F - 36.0 °F 54% 30.14 in 10.0 mi SW 12.7 mph - N/A   Partly Cloudy
6:53 PM 50.0 °F - 37.0 °F 61% 30.13 in 10.0 mi SSW 9.2 mph - N/A   Clear
7:53 PM 45.0 °F 41.2 °F 37.0 °F 74% 30.14 in 10.0 mi SSW 6.9 mph - N/A   Clear
8:53 PM 43.0 °F 38.2 °F 36.0 °F 76% 30.13 in 10.0 mi SSW 8.1 mph - N/A   Clear
9:53 PM 39.9 °F 35.8 °F 35.1 °F 83% 30.14 in 10.0 mi SW 5.8 mph - N/A   Clear
10:53 PM 42.1 °F 36.6 °F 35.1 °F 76% 30.13 in 10.0 mi SW 9.2 mph - N/A   Clear
11:53 PM 41.0 °F 35.8 °F 34.0 °F 76% 30.11 in 10.0 mi SW 8.1 mph - N/A   Clear